Time,TemperatureF,DewpointF,PressureIn,WindDirection,WindDirectionDegrees,WindSpeedMPH,WindSpeedGustMPH,Humidity,HourlyPrecipIn,Conditions,Clouds,dailyrainin,SoftwareType,DateUTC
2013-11-28 00:04:00,34.7,32.9,29.21,WNW,292,2.7,-999.0,93,-99.99,,,0.00,Acu-Link.com,2013-11-28 05:04:00,
2013-11-28 00:19:00,34.3,32.5,29.23,WNW,292,4.2,-999.0,93,-99.99,,,0.00,Acu-Link.com,2013-11-28 05:19:00,
2013-11-28 00:34:00,34.2,32.9,29.25,NNE,22,4.2,-999.0,95,-99.99,,,0.00,Acu-Link.com,2013-11-28 05:34:00,
2013-11-28 00:49:00,33.8,33.3,29.27,WNW,292,4.7,-999.0,98,-99.99,,,0.00,Acu-Link.com,2013-11-28 05:49:00,
2013-11-28 01:05:00,33.4,32.6,29.30,WNW,292,4.7,-999.0,97,-99.99,,,0.00,Acu-Link.com,2013-11-28 06:05:00,
2013-11-28 01:20:00,33.1,32.3,29.29,West,270,2.2,-999.0,97,-99.99,,,0.00,Acu-Link.com,2013-11-28 06:20:00,
2013-11-28 01:35:00,33.1,32.1,29.32,NNW,337,5.3,-999.0,96,-99.99,,,0.00,Acu-Link.com,2013-11-28 06:35:00,
2013-11-28 01:50:00,32.9,32.4,29.33,SW,225,1.1,-999.0,98,-99.99,,,0.00,Acu-Link.com,2013-11-28 06:50:00,
2013-11-28 02:05:00,32.5,31.7,29.35,West,270,4.7,-999.0,97,-99.99,,,0.00,Acu-Link.com,2013-11-28 07:05:00,
2013-11-28 02:21:00,31.5,31.0,29.36,West,270,3.2,-999.0,98,-99.99,,,0.00,Acu-Link.com,2013-11-28 07:21:00,
2013-11-28 02:36:00,31.1,30.6,29.39,North,0,1.1,-999.0,98,-99.99,,,0.00,Acu-Link.com,2013-11-28 07:36:00,
2013-11-28 02:51:00,30.7,28.9,29.39,NE,45,4.7,-999.0,93,-99.99,,,0.00,Acu-Link.com,2013-11-28 07:51:00,
2013-11-28 03:06:00,30.4,27.8,29.39,NNE,22,4.7,-999.0,90,-99.99,,,0.00,Acu-Link.com,2013-11-28 08:06:00,
2013-11-28 03:22:00,30.0,26.9,29.41,SW,225,5.3,-999.0,88,-99.99,,,0.00,Acu-Link.com,2013-11-28 08:22:00,
2013-11-28 03:37:00,29.3,27.3,29.42,North,0,4.2,-999.0,92,-99.99,,,0.00,Acu-Link.com,2013-11-28 08:37:00,
2013-11-28 03:52:00,28.8,26.2,29.43,NW,315,5.3,-999.0,90,-99.99,,,0.00,Acu-Link.com,2013-11-28 08:52:00,
2013-11-28 04:07:00,28.4,25.8,29.45,NW,315,2.7,-999.0,90,-99.99,,,0.00,Acu-Link.com,2013-11-28 09:07:00,
2013-11-28 04:23:00,27.9,26.1,29.48,WNW,292,3.7,-999.0,93,-99.99,,,0.00,Acu-Link.com,2013-11-28 09:23:00,
2013-11-28 04:38:00,27.3,24.8,29.49,WNW,292,3.7,-999.0,90,-99.99,,,0.00,Acu-Link.com,2013-11-28 09:38:00,
2013-11-28 04:53:00,26.6,24.6,29.52,NW,315,5.8,-999.0,92,-99.99,,,0.00,Acu-Link.com,2013-11-28 09:53:00,
2013-11-28 05:08:00,25.9,24.2,29.53,NW,315,2.7,-999.0,93,-99.99,,,0.00,Acu-Link.com,2013-11-28 10:08:00,
2013-11-28 05:24:00,25.3,23.3,29.55,NW,315,4.7,-999.0,92,-99.99,,,0.00,Acu-Link.com,2013-11-28 10:24:00,
2013-11-28 05:39:00,25.2,21.9,29.58,NW,315,2.2,-999.0,87,-99.99,,,0.00,Acu-Link.com,2013-11-28 10:39:00,
2013-11-28 05:54:00,25.0,21.7,29.59,WNW,292,2.7,-999.0,87,-99.99,,,0.00,Acu-Link.com,2013-11-28 10:54:00,
2013-11-28 06:09:00,24.4,20.6,29.62,East,90,2.7,-999.0,85,-99.99,,,0.00,Acu-Link.com,2013-11-28 11:09:00,
2013-11-28 06:25:00,24.3,21.5,29.63,WNW,292,3.2,-999.0,89,-99.99,,,0.00,Acu-Link.com,2013-11-28 11:25:00,
2013-11-28 06:40:00,23.9,20.9,29.65,NW,315,4.7,-999.0,88,-99.99,,,0.00,Acu-Link.com,2013-11-28 11:40:00,
2013-11-28 06:55:00,23.4,20.4,29.66,NNE,22,3.7,-999.0,88,-99.99,,,0.00,Acu-Link.com,2013-11-28 11:55:00,
2013-11-28 07:10:00,23.2,20.7,29.67,WNW,292,2.2,-999.0,90,-99.99,,,0.00,Acu-Link.com,2013-11-28 12:10:00,
2013-11-28 07:25:00,23.2,19.1,29.69,NW,315,5.8,-999.0,84,-99.99,,,0.00,Acu-Link.com,2013-11-28 12:25:00,
2013-11-28 07:41:00,23.2,18.8,29.71,WNW,292,2.7,-999.0,83,-99.99,,,0.00,Acu-Link.com,2013-11-28 12:41:00,
2013-11-28 07:56:00,23.0,19.4,29.73,WNW,292,2.2,-999.0,86,-99.99,,,0.00,Acu-Link.com,2013-11-28 12:56:00,
2013-11-28 08:11:00,22.8,20.3,29.75,NW,315,2.2,-999.0,90,-99.99,,,0.00,Acu-Link.com,2013-11-28 13:11:00,
2013-11-28 08:27:00,23.2,20.4,29.77,NNW,337,2.7,-999.0,89,-99.99,,,0.00,Acu-Link.com,2013-11-28 13:27:00,
2013-11-28 08:42:00,23.2,18.3,29.78,WNW,292,2.7,-999.0,81,-99.99,,,0.00,Acu-Link.com,2013-11-28 13:42:00,
2013-11-28 08:57:00,23.5,17.7,29.80,East,90,3.2,-999.0,78,-99.99,,,0.00,Acu-Link.com,2013-11-28 13:57:00,
2013-11-28 09:12:00,23.0,15.7,29.81,NNE,22,5.3,-999.0,73,-99.99,,,0.00,Acu-Link.com,2013-11-28 14:12:00,
2013-11-28 09:27:00,22.6,16.2,29.84,WNW,292,3.7,-999.0,76,-99.99,,,0.00,Acu-Link.com,2013-11-28 14:27:00,
2013-11-28 09:43:00,21.7,14.7,29.85,NNE,22,5.8,-999.0,74,-99.99,,,0.00,Acu-Link.com,2013-11-28 14:43:00,
2013-11-28 09:58:00,22.6,15.6,29.86,ENE,67,2.7,-999.0,74,-99.99,,,0.00,Acu-Link.com,2013-11-28 14:58:00,
2013-11-28 10:13:00,21.9,14.9,29.88,NE,45,4.7,-999.0,74,-99.99,,,0.00,Acu-Link.com,2013-11-28 15:13:00,
2013-11-28 10:28:00,22.1,17.5,29.88,NNE,22,2.2,-999.0,82,-99.99,,,0.00,Acu-Link.com,2013-11-28 15:28:00,
2013-11-28 10:44:00,21.4,14.4,29.89,NNE,22,3.7,-999.0,74,-99.99,,,0.00,Acu-Link.com,2013-11-28 15:44:00,
2013-11-28 10:59:00,20.3,12.7,29.90,NNE,22,4.2,-999.0,72,-99.99,,,0.00,Acu-Link.com,2013-11-28 15:59:00,
2013-11-28 11:14:00,20.8,13.5,29.90,NE,45,5.3,-999.0,73,-99.99,,,0.00,Acu-Link.com,2013-11-28 16:14:00,
2013-11-28 11:29:00,20.7,12.5,29.91,West,270,5.3,-999.0,70,-99.99,,,0.00,Acu-Link.com,2013-11-28 16:29:00,
2013-11-28 11:44:00,21.0,12.8,29.94,SSW,202,4.7,-999.0,70,-99.99,,,0.00,Acu-Link.com,2013-11-28 16:44:00,
2013-11-28 12:00:00,21.0,11.8,29.94,SSW,202,4.2,-999.0,67,-99.99,,,0.00,Acu-Link.com,2013-11-28 17:00:00,
2013-11-28 12:15:00,21.0,11.8,29.94,North,0,2.2,-999.0,67,-99.99,,,0.00,Acu-Link.com,2013-11-28 17:15:00,
2013-11-28 12:30:00,21.2,12.6,29.95,WNW,292,4.7,-999.0,69,-99.99,,,0.00,Acu-Link.com,2013-11-28 17:30:00,
2013-11-28 12:46:00,22.3,13.7,29.95,NE,45,2.7,-999.0,69,-99.99,,,0.00,Acu-Link.com,2013-11-28 17:46:00,
2013-11-28 13:01:00,22.1,12.8,29.97,NNW,337,3.2,-999.0,67,-99.99,,,0.00,Acu-Link.com,2013-11-28 18:01:00,
2013-11-28 13:16:00,22.1,12.8,29.96,NW,315,5.3,-999.0,67,-99.99,,,0.00,Acu-Link.com,2013-11-28 18:16:00,
2013-11-28 13:31:00,22.5,12.9,29.97,WNW,292,2.7,-999.0,66,-99.99,,,0.00,Acu-Link.com,2013-11-28 18:31:00,
2013-11-28 13:47:00,22.3,12.3,29.99,NNW,337,7.8,-999.0,65,-99.99,,,0.00,Acu-Link.com,2013-11-28 18:47:00,
2013-11-28 14:02:00,22.5,12.5,29.99,North,0,4.7,-999.0,65,-99.99,,,0.00,Acu-Link.com,2013-11-28 19:02:00,
2013-11-28 14:17:00,22.3,13.7,30.00,NW,315,2.7,-999.0,69,-99.99,,,0.00,Acu-Link.com,2013-11-28 19:17:00,
2013-11-28 14:32:00,22.3,13.0,30.00,ENE,67,4.7,-999.0,67,-99.99,,,0.00,Acu-Link.com,2013-11-28 19:32:00,
2013-11-28 14:47:00,22.3,13.0,30.01,NNE,22,4.7,-999.0,67,-99.99,,,0.00,Acu-Link.com,2013-11-28 19:47:00,
2013-11-28 15:03:00,22.3,13.4,30.02,NE,45,4.2,-999.0,68,-99.99,,,0.00,Acu-Link.com,2013-11-28 20:03:00,
2013-11-28 15:18:00,22.1,12.5,30.02,NW,315,2.7,-999.0,66,-99.99,,,0.00,Acu-Link.com,2013-11-28 20:18:00,
2013-11-28 15:33:00,21.9,12.3,30.04,SSW,202,7.3,-999.0,66,-99.99,,,0.00,Acu-Link.com,2013-11-28 20:33:00,
2013-11-28 15:48:00,21.4,11.1,30.05,NNW,337,4.2,-999.0,64,-99.99,,,0.00,Acu-Link.com,2013-11-28 20:48:00,
2013-11-28 16:04:00,21.2,12.6,30.07,NE,45,2.2,-999.0,69,-99.99,,,0.00,Acu-Link.com,2013-11-28 21:04:00,
2013-11-28 16:19:00,21.0,12.5,30.08,ENE,67,4.7,-999.0,69,-99.99,,,0.00,Acu-Link.com,2013-11-28 21:19:00,
2013-11-28 16:34:00,20.8,12.6,30.10,WNW,292,1.1,-999.0,70,-99.99,,,0.00,Acu-Link.com,2013-11-28 21:34:00,
2013-11-28 16:49:00,20.8,12.3,30.12,NW,315,3.7,-999.0,69,-99.99,,,0.00,Acu-Link.com,2013-11-28 21:49:00,
2013-11-28 17:05:00,20.7,12.8,30.12,NNE,22,0.0,-999.0,71,-99.99,,,0.00,Acu-Link.com,2013-11-28 22:05:00,
2013-11-28 17:20:00,20.7,12.2,30.12,NNE,22,2.2,-999.0,69,-99.99,,,0.00,Acu-Link.com,2013-11-28 22:20:00,
2013-11-28 17:35:00,20.5,12.6,30.14,WNW,292,3.7,-999.0,71,-99.99,,,0.00,Acu-Link.com,2013-11-28 22:35:00,
2013-11-28 17:50:00,19.9,12.7,30.15,ESE,112,0.0,-999.0,73,-99.99,,,0.00,Acu-Link.com,2013-11-28 22:50:00,
2013-11-28 18:06:00,19.8,11.6,30.16,NNE,22,1.1,-999.0,70,-99.99,,,0.00,Acu-Link.com,2013-11-28 23:06:00,
2013-11-28 18:21:00,19.6,11.8,30.16,WNW,292,1.7,-999.0,71,-99.99,,,0.00,Acu-Link.com,2013-11-28 23:21:00,
2013-11-28 18:36:00,19.6,11.4,30.16,WSW,247,4.7,-999.0,70,-99.99,,,0.00,Acu-Link.com,2013-11-28 23:36:00,
2013-11-28 18:51:00,19.4,11.2,30.16,WNW,292,3.2,-999.0,70,-99.99,,,0.00,Acu-Link.com,2013-11-28 23:51:00,
2013-11-28 19:06:00,19.4,10.9,30.17,West,270,2.2,-999.0,69,-99.99,,,0.00,Acu-Link.com,2013-11-29 00:06:00,
2013-11-28 19:22:00,19.2,10.4,30.17,WNW,292,2.2,-999.0,68,-99.99,,,0.00,Acu-Link.com,2013-11-29 00:22:00,
2013-11-28 19:37:00,19.0,9.9,30.19,WNW,292,4.2,-999.0,67,-99.99,,,0.00,Acu-Link.com,2013-11-29 00:37:00,
2013-11-28 19:52:00,18.9,9.8,30.21,SSW,202,4.2,-999.0,67,-99.99,,,0.00,Acu-Link.com,2013-11-29 00:52:00,
2013-11-28 20:08:00,18.7,10.6,30.21,WNW,292,2.7,-999.0,70,-99.99,,,0.00,Acu-Link.com,2013-11-29 01:08:00,
2013-11-28 20:23:00,18.5,10.4,30.21,West,270,3.7,-999.0,70,-99.99,,,0.00,Acu-Link.com,2013-11-29 01:23:00,
2013-11-28 20:38:00,18.5,10.1,30.23,NNE,22,3.2,-999.0,69,-99.99,,,0.00,Acu-Link.com,2013-11-29 01:38:00,
2013-11-28 20:53:00,18.3,10.2,30.25,South,180,2.2,-999.0,70,-99.99,,,0.00,Acu-Link.com,2013-11-29 01:53:00,
2013-11-28 21:08:00,18.3,9.9,30.26,NW,315,1.7,-999.0,69,-99.99,,,0.00,Acu-Link.com,2013-11-29 02:08:00,
2013-11-28 21:24:00,18.0,10.2,30.26,ENE,67,1.1,-999.0,71,-99.99,,,0.00,Acu-Link.com,2013-11-29 02:24:00,
2013-11-28 21:39:00,17.8,10.0,30.26,WSW,247,3.2,-999.0,71,-99.99,,,0.00,Acu-Link.com,2013-11-29 02:39:00,
2013-11-28 21:54:00,17.8,10.3,30.26,WNW,292,2.7,-999.0,72,-99.99,,,0.00,Acu-Link.com,2013-11-29 02:54:00,
2013-11-28 22:09:00,17.6,10.1,30.27,NW,315,2.2,-999.0,72,-99.99,,,0.00,Acu-Link.com,2013-11-29 03:09:00,
2013-11-28 22:24:00,17.6,10.4,30.28,NE,45,2.2,-999.0,73,-99.99,,,0.00,Acu-Link.com,2013-11-29 03:24:00,
2013-11-28 22:40:00,17.8,10.6,30.27,NW,315,2.7,-999.0,73,-99.99,,,0.00,Acu-Link.com,2013-11-29 03:40:00,
2013-11-28 22:55:00,17.8,10.3,30.28,NNW,337,3.2,-999.0,72,-99.99,,,0.00,Acu-Link.com,2013-11-29 03:55:00,
2013-11-28 23:10:00,17.8,10.6,30.30,NW,315,3.2,-999.0,73,-99.99,,,0.00,Acu-Link.com,2013-11-29 04:10:00,
2013-11-28 23:25:00,17.8,10.6,30.29,NNE,22,3.7,-999.0,73,-99.99,,,0.00,Acu-Link.com,2013-11-29 04:25:00,
2013-11-28 23:40:00,18.0,9.9,30.30,NW,315,1.7,-999.0,70,-99.99,,,0.00,Acu-Link.com,2013-11-29 04:40:00,
2013-11-28 23:56:00,17.8,10.9,30.29,NNE,22,1.7,-999.0,74,-99.99,,,0.00,Acu-Link.com,2013-11-29 04:56:00,